• Join FlightAware (Why Join?)
  • Login
  • US Flag GB Flag 
21:40 EDT


 

Airport Tracker/Info


-or-


 

Live Flight TrackerFlight Track Log ✈ N498QS ✈ 07-Apr-2013 ✈ KBQK - KPBI

Flight Track Log - Related Links

Times and Time Zones

All times are in EDT time to prevent confusion due to time zone crossing. See the N498QS flight status page for this flight to view local times or setup timezone preferences in your user account.

Time Position Orientation Groundspeed Altitude Reporting Facility
EDT Latitude Longitude Course Direction KTS MPH feet Rate Location/Type
18:07 31.2767 -81.3881 169° South 320 368 4,200  Level Jacksonville Center
18:08 30.7311 -81.3015 169° South  Level Estimated
18:08 31.2506 -81.3228 115° Southeast 220 253 6,700  Level Jacksonville Center
18:09 31.1817 -81.3117 172° South 207 238 10,200 2,700 Climbing Jacksonville Center
18:10 31.0875 -81.3011 175° South 288 331 12,100 2,100 Climbing Jacksonville Center
18:11 30.9872 -81.2908 175° South 329 379 14,400 2,520 Climbing Jacksonville Center
18:12 30.8806 -81.2806 175° South 369 425 17,200 2,880 Climbing Jacksonville Center
18:13 30.7822 -81.2700 175° South 369 425 20,200 2,820 Climbing Jacksonville Center
18:14 30.6883 -81.2572 173° South 362 417 22,900 2,280 Climbing Jacksonville Center
18:15 30.5878 -81.2347 169° South 357 411 24,800 1,620 Climbing Jacksonville Center
18:16 30.4808 -81.1981 164° South 378 435 26,200 1,260 Climbing Jacksonville Center
18:17 30.3592 -81.1642 166° South 416 479 27,400 1,500 Climbing Jacksonville Center
18:18 30.2375 -81.1278 166° South 438 504 29,300 2,040 Climbing Jacksonville Center
18:19 30.1158 -81.0892 165° South 453 521 31,500 840 Climbing Jacksonville Center
18:21 29.8653 -81.0156 166° South 477 549 32,000 120 Climbing Miami Center
18:22 29.7411 -80.9797 166° South 472 543 32,000  Level Miami Center
18:23 29.6131 -80.9417 166° South 472 543 32,000  Level Miami Center
18:24 29.4869 -80.9036 165° South 472 543 32,000  Level Miami Center
18:25 29.3606 -80.8703 167° South 467 537 32,000  Level Miami Center
18:26 29.2344 -80.8372 167° South 467 537 32,000  Level Miami Center
18:27 29.1061 -80.7969 165° South 467 537 32,000  Level Miami Center
18:28 28.9800 -80.7614 166° South 467 537 32,000  Level Miami Center
18:29 28.8414 -80.7211 166° South 467 537 32,000  Level Miami Center
18:30 28.7131 -80.6786 164° South 472 543 32,000  Level Miami Center
18:31 28.6064 -80.6114 151° Southeast 479 551 32,000 -1,080 Level Miami Center
18:32 28.4897 -80.5269 148° Southeast 492 566 29,900 -2,220 Descending Miami Center
18:33 28.3667 -80.4381 148° Southeast 486 559 27,600 -2,340 Descending Miami Center
18:34 28.2489 -80.3850 158° South 462 532 25,300 -2,100 Descending Miami Center
18:35 28.1350 -80.3553 167° South 434 499 23,400 -1,860 Descending Miami Center
18:36 28.0311 -80.3286 167° South 429 494 21,600 -1,800 Descending Miami Center
18:37 27.9214 -80.2972 166° South 416 479 19,800 -1,920 Descending Miami Center
18:38 27.8053 -80.2656 166° South 408 470 17,800 -1,800 Descending Miami Center
18:39 27.7014 -80.2389 167° South 392 451 16,300 -1,620 Descending Miami Center
18:40 27.5978 -80.2125 167° South 387 445 14,600 -1,680 Descending Miami Center
18:41 27.5106 -80.1889 166° South 369 425 13,000 -1,500 Descending Miami Center
18:42 27.4192 -80.1650 167° South 358 412 11,600 -1,500 Descending Miami Center
18:43 27.3300 -80.1414 167° South 316 364 10,100 -840 Descending Miami Center
18:44 27.2489 -80.1275 171° South 296 341 10,000  Descending Miami Center
18:45 27.1764 -80.0950 158° South 284 327 10,100 -420 Climbing Miami Center
18:46 27.1058 -80.0861 174° South 284 327 9,200 -1,140 Descending Miami Center
18:47 27.0283 -80.0933 185° South 275 316 7,900 -1,740 Descending Miami Center
18:48 26.9425 -80.0981 183° South 275 316 5,800 -1,920 Descending Miami Center
18:49 26.8672 -80.1097 188° South 275 316 4,100 -1,440 Descending Miami Center
18:50 26.8117 -80.1664 222° Southwest 270 311 3,000 -660 Descending Miami Center
18:51 26.7747 -80.2258 235° Southwest 263 303 2,800 -240 Descending Miami Center
18:53 26.7833 -80.3635 270° West  Level FlightAware Approximate
19:00 26.6832 -80.0956 110° East  Level Estimated
19:01 26.6832 -80.0956 110° East  Level Estimated
19:02 26.6832 -80.0956 110° East  Level Estimated
19:03 26.6832 -80.0956 110° East  Level Estimated
19:04 26.6832 -80.0956 110° East  Level Estimated